Fairfield, IL

5:39 PM CST on December 15, 2019 (GMT -0600)
Fairfield Municipal

Weather History for KFWC - October, 2019

Change the Weather History Date:

Saturday, October 5, 2019

  Actual Average (WUND) Record (WUND)
Temperature  
Mean Temperature 66 °F -  
Max Temperature 81 °F - - (-1)
Min Temperature 50 °F - - (-1)
Growing Degree Days 16 (Base 50)    
Moisture  
Dew Point 50 °F    
Average Humidity 62    
Maximum Humidity 87    
Minimum Humidity 29    
Precipitation  
Precipitation 0.00 in - - ()
Sea Level Pressure  
Sea Level Pressure 30.05 in    
Wind  
Wind Speed 1 mph ()    
Max Wind Speed 5 mph    
Max Gust Speed -    
Visibility 9.9 miles    
Events Rain , Thunderstorm    
Averages and records for this station are not official NWS values.
T = Trace of Precipitation, MM = Missing Value Source: Averaged Metar Reports

Daily Weather History Graph

Daily Weather History Graph

Search for Another Location

Airport or City:

Astronomy

Oct. 05, 2019 Rise Set
Actual Time 6:52 AM CDT 6:30 PM CDT
Civil Twilight 6:26 AM CDT 6:57 PM CDT
Nautical Twilight 5:55 AM CDT 7:27 PM CDT
Astronomical Twilight 5:24 AM CDT 7:58 PM CDT
Moon 2:13 PM CDT (10/5) 11:57 PM CDT (10/5)
Length of Visible Light 12h 30m
Length of Day
11h 37m
Waxing Crescent, 50% of the Moon is Illuminated
Oct 5
Waxing Crescent
Oct 13
Full
Oct 21
Last Quarter
Oct 27
New
Nov 4
First Quarter

Hourly Weather History & Observations

Time (CDT) Temp. Dew Point Humidity Pressure Visibility Wind Dir Wind Speed Gust Speed Precip Events Conditions
12:15 AM 55.4 °F 47.8 °F 76% 30.18 in 10.0 mi NE 3.5 mph - N/A   Clear
12:35 AM 55.0 °F 47.8 °F 77% 30.18 in 10.0 mi Calm Calm - N/A   Clear
12:55 AM 54.9 °F 47.8 °F 77% 30.17 in 10.0 mi NE 3.5 mph - N/A   Clear
1:15 AM 55.0 °F 47.7 °F 76% 30.17 in 10.0 mi NE 3.5 mph - N/A   Clear
1:35 AM 55.0 °F 47.5 °F 76% 30.16 in 10.0 mi Calm Calm - N/A   Clear
1:55 AM 54.9 °F 47.3 °F 76% 30.16 in 10.0 mi ENE 3.5 mph - N/A   Clear
2:15 AM 54.9 °F 47.3 °F 76% 30.16 in 10.0 mi NE 3.5 mph - N/A   Clear
2:35 AM 54.1 °F 47.3 °F 78% 30.15 in 10.0 mi Calm Calm - N/A   Clear
2:55 AM 53.8 °F 47.3 °F 79% 30.15 in 10.0 mi NNE 3.5 mph - N/A   Clear
3:15 AM 52.9 °F 47.5 °F 82% 30.14 in 10.0 mi Calm Calm - N/A   Clear
3:35 AM 52.0 °F 47.3 °F 84% 30.14 in 10.0 mi Calm Calm - N/A   Clear
3:55 AM 51.4 °F 47.3 °F 86% 30.14 in 10.0 mi North 3.5 mph - N/A   Clear
4:15 AM 51.6 °F 47.3 °F 85% 30.14 in 10.0 mi Calm Calm - N/A   Clear
4:35 AM 51.1 °F 47.3 °F 87% 30.14 in 10.0 mi Calm Calm - N/A   Clear
4:55 AM 51.1 °F 47.3 °F 87% 30.14 in 10.0 mi Calm Calm - N/A   Clear
5:15 AM 51.1 °F 46.9 °F 86% 30.13 in 10.0 mi Calm Calm - N/A   Clear
5:35 AM 51.3 °F 46.8 °F 85% 30.13 in 10.0 mi NNE 3.5 mph - N/A   Clear
5:55 AM 50.9 °F 46.8 °F 86% 30.13 in 10.0 mi Calm Calm - N/A   Clear
6:15 AM 50.7 °F 46.8 °F 86% 30.12 in 10.0 mi Calm Calm - N/A   Clear
6:35 AM 50.4 °F 46.8 °F 87% 30.13 in 10.0 mi NNE 3.5 mph - N/A   Clear
6:55 AM 50.4 °F 46.8 °F 87% 30.13 in 10.0 mi NNE 3.5 mph - N/A   Clear
7:15 AM 50.9 °F 46.9 °F 86% 30.13 in 10.0 mi Calm Calm - N/A   Clear
7:35 AM 51.6 °F 47.3 °F 85% 30.13 in 10.0 mi Calm Calm - N/A   Clear
7:55 AM 53.4 °F 47.7 °F 81% 30.12 in 10.0 mi ENE 3.5 mph - N/A   Clear
8:15 AM 55.2 °F 47.8 °F 76% 30.11 in 10.0 mi Calm Calm - N/A   Clear
8:35 AM 56.5 °F 48.2 °F 74% 30.11 in 10.0 mi East 3.5 mph - N/A   Clear
8:55 AM 58.1 °F 48.7 °F 71% 30.11 in 10.0 mi East 4.6 mph - N/A   Clear
9:15 AM 59.5 °F 49.1 °F 68% 30.11 in 10.0 mi Calm Calm - N/A   Clear
9:35 AM 61.3 °F 49.3 °F 65% 30.11 in 10.0 mi ESE 3.5 mph - N/A   Clear
9:55 AM 62.6 °F 49.5 °F 62% 30.10 in 10.0 mi Calm Calm - N/A   Clear
10:15 AM 63.9 °F 49.8 °F 60% 30.09 in 10.0 mi ESE 3.5 mph - N/A   Clear
10:35 AM 65.8 °F 50.2 °F 57% 30.09 in 10.0 mi Calm Calm - N/A   Clear
10:55 AM 67.3 °F 50.2 °F 54% 30.08 in 10.0 mi SE 3.5 mph - N/A   Clear
11:15 AM 69.4 °F 50.4 °F 51% 30.06 in 10.0 mi South 3.5 mph - N/A   Clear
11:35 AM 70.5 °F 49.6 °F 47% 30.06 in 10.0 mi South 3.5 mph - N/A   Clear
11:55 AM 70.7 °F 49.3 °F 47% 30.05 in 10.0 mi Calm Calm - N/A   Clear
12:15 PM 72.1 °F 49.8 °F 45% 30.05 in 10.0 mi Calm Calm - N/A   Clear
12:35 PM 73.4 °F 49.8 °F 43% 30.04 in 10.0 mi SW 3.5 mph - N/A   Clear
12:55 PM 73.9 °F 49.3 °F 42% 30.03 in 3.0 mi Calm Calm - N/A   Haze
1:15 PM 75.9 °F 49.1 °F 39% 30.02 in 10.0 mi SE 3.5 mph - N/A   Clear
1:35 PM 77.0 °F 48.6 °F 37% 30.01 in 10.0 mi Calm Calm - N/A   Clear
1:55 PM 75.6 °F 47.1 °F 36% 30.00 in 10.0 mi Calm Calm - N/A   Clear
2:15 PM 77.7 °F 47.1 °F 34% 30.00 in 10.0 mi Calm Calm - N/A   Clear
2:35 PM 79.0 °F 46.8 °F 32% 29.99 in 10.0 mi Calm Calm - N/A   Clear
2:55 PM 78.4 °F 46.4 °F 32% 29.98 in 10.0 mi Calm Calm - N/A   Clear
3:15 PM 79.2 °F 45.9 °F 31% 29.98 in 10.0 mi Calm Calm - N/A   Clear
3:35 PM 79.7 °F 46.4 °F 31% 29.97 in 10.0 mi Calm Calm - N/A   Clear
3:55 PM 80.6 °F 47.7 °F 31% 29.96 in 10.0 mi Calm Calm - N/A   Clear
4:15 PM 80.6 °F 47.1 °F 31% 29.96 in 10.0 mi SSE 3.5 mph - N/A   Clear
4:35 PM 81.1 °F 45.9 °F 29% 29.96 in 10.0 mi SSE 3.5 mph - N/A   Scattered Clouds
4:55 PM 79.7 °F 45.1 °F 29% 29.96 in 10.0 mi Calm Calm - N/A Thunderstorm Clear
5:15 PM 76.1 °F 52.5 °F 44% 29.96 in 10.0 mi Calm Calm - N/A   Clear
5:35 PM 74.3 °F 53.1 °F 47% 29.95 in 10.0 mi Calm Calm - N/A   Clear
5:55 PM 72.5 °F 54.7 °F 53% 29.94 in 10.0 mi Calm Calm - N/A   Clear
6:15 PM 71.1 °F 55.0 °F 57% 29.94 in 10.0 mi Calm Calm - N/A   Clear
6:35 PM 70.2 °F 56.7 °F 62% 29.94 in 10.0 mi Calm Calm - N/A Rain Light Rain
6:55 PM 68.4 °F 58.3 °F 70% 29.94 in 10.0 mi Calm Calm - N/A   Scattered Clouds
7:15 PM 68.5 °F 58.6 °F 71% 29.94 in 10.0 mi Calm Calm - N/A   Scattered Clouds
7:35 PM 68.5 °F 59.9 °F 74% 29.94 in 10.0 mi Calm Calm - N/A   Mostly Cloudy
7:55 PM 71.6 °F 53.1 °F 52% 29.93 in 10.0 mi Calm Calm - N/A   Mostly Cloudy
8:15 PM 71.8 °F 51.4 °F 49% 29.91 in 10.0 mi SSE 3.5 mph - N/A   Scattered Clouds
8:35 PM 69.8 °F 52.2 °F 53% 29.93 in 10.0 mi Calm Calm - N/A   Scattered Clouds
8:55 PM 67.3 °F 53.6 °F 61% 29.94 in 10.0 mi Calm Calm - N/A   Clear
9:15 PM 70.2 °F 51.8 °F 52% 29.94 in 10.0 mi Calm Calm - N/A   Clear
9:35 PM 69.6 °F 52.7 °F 55% 29.93 in 10.0 mi Calm Calm - N/A   Clear
9:55 PM 67.3 °F 54.1 °F 63% 29.94 in 10.0 mi Calm Calm - N/A   Clear
10:15 PM 65.5 °F 54.7 °F 68% 29.95 in 10.0 mi Calm Calm - N/A   Clear
10:35 PM 68.0 °F 52.9 °F 58% 29.97 in 10.0 mi Calm Calm - N/A   Scattered Clouds
10:55 PM 68.5 °F 52.7 °F 57% 29.97 in 10.0 mi Calm Calm - N/A   Overcast
11:15 PM 64.9 °F 54.1 °F 68% 29.98 in 10.0 mi Calm Calm - N/A   Mostly Cloudy
11:35 PM 63.7 °F 55.2 °F 74% 29.97 in 10.0 mi Calm Calm - N/A   Mostly Cloudy
11:55 PM 64.9 °F 55.8 °F 72% 29.96 in 10.0 mi Calm Calm - N/A   Mostly Cloudy